Home   Weather   Douala   Past weeks

Flag for Cameroon Past Weather in Douala, Cameroon — Yesterday and Last 2 Weeks

Now
79 °F

Passing clouds.


Feels Like: 82 °F
Forecast: 74 / 85 °F
Wind: 2 mph from Southeast

Location: Douala Obs.

Current Time: Sep 24, 2016 at 9:58:20 PM

Latest Report: Sep 24, 2016 at 9:00 PM


Visibility: N/A

Pressure: 29.89 "Hg

Humidity: 89%

Dew Point: 75 °F

Location of DoualaLocation

Past Weather in Douala — Graph

°F

Douala Temperature Yesterday

Maximum temperature yesterday: 86 °F (at 1:00 PM)
Minimum temperature yesterday: 75 °F (at 7:00 AM)
Average temperature yesterday: 79 °F

High & Low Weather Summary for the Past Weeks

 TemperatureHumidityPressure
High88 °F (Sep 14, 2:00 PM)100% (Sep 10, 3:00 AM)29.98 "Hg (Sep 10, 3:00 AM)
Low72 °F (Sep 16, 7:00 AM)62% (Sep 14, 1:00 PM)29.80 "Hg (Sep 21, 3:00 PM)
Average79 °F89%29.90 "Hg
* Reported Sep 9 8:00 PM — Sep 24 8:00 PM, Douala, Weather by CustomWeather, © 2016

Note: Actual official high and low records may vary slightly from our data, if they occured in-between our weather recording intervals... More about our weather records

Advertising

Douala Weather History for the Previous 24 Hours

Scroll right to see more
 ConditionsComfort  
Time TempWeatherWind HumidityBarometerVisibility
8:00 PM
Sat, Sep 24
77 °FPassing clouds.2 mph94%29.89 "HgN/A
7:00 PM77 °FThunderstorms. Passing clouds.8 mph94%29.86 "HgN/A
6:00 PM81 °FThunderstorms. Partly sunny.7 mph84%29.86 "HgN/A
5:00 PM81 °FPartly sunny.10 mph79%29.86 "HgN/A
4:00 PM84 °FScattered clouds.9 mph74%29.86 "HgN/A
3:00 PM86 °FPartly sunny.9 mph70%29.86 "HgN/A
2:00 PM84 °FPartly sunny.8 mph74%29.89 "HgN/A
1:00 PM82 °FThunderstorms. Broken clouds.3 mph79%29.89 "HgN/A
12:00 PM82 °FThunderstorms. Broken clouds.3 mph79%29.92 "HgN/A
11:00 AM81 °FThunderstorms. Broken clouds.2 mph89%29.95 "Hg5 mi
10:00 AM79 °FThunderstorms. Broken clouds.No wind89%29.95 "Hg5 mi
9:00 AM79 °FThunderstorms. Broken clouds.1 mph89%29.95 "Hg5 mi
8:00 AM77 °FThunderstorms. Broken clouds.No wind94%29.92 "Hg5 mi
7:00 AM77 °FThunderstorms. Broken clouds.2 mph94%29.92 "Hg5 mi
6:00 AM77 °FThunderstorms. Partly cloudy.No wind94%29.89 "Hg4 mi
5:00 AM77 °FThunderstorms. Partly cloudy.No wind100%29.89 "Hg4 mi
4:00 AM77 °FThunderstorms. Partly cloudy.No wind94%29.86 "Hg1 mi
3:00 AM77 °FThunderstorms. Partly cloudy.No wind94%29.89 "Hg4 mi
2:00 AM77 °FThunderstorms. Partly cloudy.No wind94%29.89 "HgN/A
1:00 AM77 °FThunderstorms. Partly cloudy.No wind94%29.89 "HgN/A
12:00 AM77 °FThunderstorms. Partly cloudy.No wind100%29.92 "Hg4 mi
11:00 PM
Fri, Sep 23
77 °FThunderstorms. Partly cloudy.No wind100%29.92 "Hg4 mi
10:00 PM77 °FStrong thunderstorms. Partly cloudy.3 mph100%29.92 "Hg1 mi
9:00 PM77 °FPassing clouds.No wind94%29.92 "Hg4 mi
Weather by CustomWeather, © 2016

See weather overviewHow to use our weather pages